{"data":{"norad_id":59222,"intl_designator":"2024-046X","name":"STARLINK-31490","alt_names":[],"object_type":"PAYLOAD","status":"ACTIVE","operator":null,"country":"US","launch_date":"2024-03-11","launch_site_code":"AFWTR","launch_vehicle":null,"mission":null,"orbit_class":"UNKNOWN","rcs_meters":null,"size_class":null,"mass_kg":null,"dimensions":null,"purposes":["comms"],"wikipedia_slug":null,"has_3d_model":false,"image_url":null,"decayed_at":null,"tle_current":{"epoch":"2026-09-20T15:58:25.813056Z","epoch_age_seconds":144553,"freshness":"FRESH","line1":"1 59222U 24046X   26263.66557654  .00001328  00000+0  50436-4 0  9994","line2":"2 59222  53.1612 328.8121 0001154  80.5017 279.6116 15.34405390142909","mean_motion":15.3440539,"eccentricity":0.0001154,"inclination_deg":53.1612,"raan_deg":328.8121,"arg_perigee_deg":80.5017,"mean_anomaly_deg":279.6116,"bstar":5.0436e-5,"rev_number":14290,"period_min":93.847428416554,"perigee_km":461.89778892312,"apogee_km":463.4766511531,"semimajor_km":6840.8242200381,"source":"CELESTRAK","updated_at":"2026-09-21T09:00:34.073200Z"}}}